Regional Weather Roundup
Issued by NWS

Home | Current Version | Previous Version | Graphics & Text | Print | Product List | Glossary On
Versions: 1 2 3 4 5 6 7 8 9 10 11 12 13 14 15 16 17 18 19 20 21 22 23 24 25 26 27 28 29 30 31 32 33 34 35 36 37 38 39 40 41 42 43 44 45 46 47 48 49 50
000
ASUS43 KOAX 291010
RWRNE

WEATHER ROUNDUP FOR NEBRASKA
NATIONAL WEATHER SERVICE OMAHA NE
500 AM CDT WED JUL 29 2015

NOTES: SATELLITE DATA IS BEING USED TO AUGMENT CLOUD COVER ABOVE
       12000 FEET.
       "FAIR" INDICATES FEW OR NO CLOUDS BELOW 12,000 FEET WITH NO
       SIGNIFICANT WEATHER AND/OR OBSTRUCTIONS TO VISIBILITY.

  * THESE STATIONS DO NOT REPORT WEATHER SUCH AS RAIN...SNOW OR FOG.

NEZ001>004-019>022-054>056-291100-
NEBRASKA PANHANDLE

CITY           SKY/WX    TMP DP  RH WIND       PRES   REMARKS
SCOTTSBLUFF    CLEAR     50  46  86 NW3       30.29R
ALLIANCE       CLEAR     42  39  89 W5        30.28R
CHADRON        CLEAR     44  40  85 W7        30.26R
KIMBALL        CLEAR     50  42  75 CALM      30.28S
SIDNEY           N/A     48  42  80 N8        30.29R
$$

NEZ057>060-069>072-079>082-291100-
SOUTHWEST NEBRASKA

CITY           SKY/WX    TMP DP  RH WIND       PRES   REMARKS
NORTH PLATTE   CLEAR     58  48  69 NE8       30.22R
IMPERIAL       PTCLDY    54  49  83 N3        30.24R
LEXINGTON      PTCLDY    55  51  89 NW8       30.20S
MCCOOK         MOCLDY    58  50  75 N3        30.21R
OGALLALA       CLEAR     55  46  73 NE3       30.26R
$$

NEZ005>010-023>029-035>040-094-291100-
NORTH CENTRAL NEBRASKA

CITY           SKY/WX    TMP DP  RH WIND       PRES   REMARKS
VALENTINE      CLEAR     49  45  86 SW8       30.21R
AINSWORTH      CLEAR     53  47  81 SW5       30.21R
BROKEN BOW     PTCLDY    54  50  86 CALM      30.21R
O`NEILL        CLEAR     53  52  96 SW6       30.17S
ORD            CLEAR     54  51  90 CALM      30.18R
THEDFORD       PTCLDY    53  47  82 CALM      30.24R
$$

NEZ041-046>049-061>064-073>077-083>087-291100-
SOUTH CENTRAL NEBRASKA

CITY           SKY/WX    TMP DP  RH WIND       PRES   REMARKS
GRAND ISLAND   CLEAR     58  54  86 N7        30.17R
AURORA         CLEAR     59  58  96 N5        30.16R
HASTINGS       PTCLDY    59  56  89 CALM      30.16R
HEBRON         PTCLDY    61  58  91 CALM      30.12R
HOLDREGE       MOCLDY    55  53  93 CALM      30.18S
KEARNEY *      PTCLDY    59  52  77 NW7       30.17S
YORK           CLEAR     57  57 100 N3        30.15R
$$

NEZ011>018-030>034-042>045-291100-
NORTHEAST NEBRASKA

CITY           SKY/WX    TMP DP  RH WIND       PRES   REMARKS
NORFOLK        CLEAR     55  52  89 W5        30.14R
ALBION         CLEAR     53  51  90 CALM      30.17R
BLAIR          PTCLDY    63  58  84 N3        30.11R
COLUMBUS *     CLEAR     52  46  82 CALM      30.15R
FREMONT        CLEAR     61  58  92 W5        30.13R
TEKAMAH        CLEAR     60  58  92 CALM      30.11R
WAYNE          CLEAR     54  52  95 CALM      30.14R
$$

NEZ050>053-065>068-078-088>093-291100-
SOUTHEAST NEBRASKA

CITY           SKY/WX    TMP DP  RH WIND       PRES   REMARKS
LINCOLN        CLEAR     60  59  96 N8        30.12R
OMAHA EPPLEY   PTCLDY    65  62  90 N10       30.10R
BEATRICE       PTCLDY    62  60  95 N3        30.11R
FALLS CITY     CLOUDY    72  69  90 N9        30.05S
NEBRASKA CITY  MOCLDY    65  59  80 NE3       30.10R
PLATTSMOUTH    PTCLDY    64  61  90 NW6       30.11R
$$

NEZ044-045-051>053-067-291100-
OMAHA AREA

CITY           SKY/WX    TMP DP  RH WIND       PRES   REMARKS
OMAHA EPPLEY   PTCLDY    65  62  90 N10       30.10R
BLAIR          PTCLDY    63  58  84 N3        30.11R
FREMONT        CLEAR     61  58  92 W5        30.13R
MILLARD        PTCLDY    64  62  91 NW7       30.10R
OFFUTT AFB     PTCLDY    63  60  91 CALM      30.09R
PLATTSMOUTH    PTCLDY    64  61  90 NW6       30.11R
WAHOO          FAIR      61  59  92 N6        30.12R
$$


USA.gov is the U.S. government's official web portal to all federal, state and local government web resources and services.